HAZ184 VHHH-RJFF

Flight info

Callsign HAZ184
Flight time N/A
Altitude 35000
Route DALOL V631 ENVAR M750 SANAS/N0466F370 M750 MOMPA Y25 GOKYO/N0462F380 Y25 ISKUP
Aircraft B738/M-SDE2E3FGHIRWXY/LB1

Departure

Time 2026-05-08 06:01
Airport Hong Kong International Airport (VHHH)

Arrival

Time N/A
Airport Fukuoka Airport (RJFF)
Time Latitude Longitude Altitude Speed Heading
2026-05-08 05:44 22.31288 113.91593 34 ft 0 kts 72°
2026-05-08 05:51 22.31284 113.91581 34 ft 2 kts 72°
2026-05-08 05:51 22.31280 113.91566 34 ft 2 kts 72°
2026-05-08 05:51 22.31275 113.91550 34 ft 2 kts 72°
2026-05-08 05:51 22.31270 113.91535 34 ft 2 kts 72°
2026-05-08 05:52 22.31266 113.91520 34 ft 1 kts 72°
2026-05-08 05:52 22.31263 113.91510 34 ft 2 kts 63°
2026-05-08 05:52 22.31253 113.91498 34 ft 2 kts 37°
2026-05-08 05:52 22.31240 113.91489 34 ft 2 kts 15°
2026-05-08 05:53 22.31225 113.91488 34 ft 2 kts 353°
2026-05-08 05:53 22.31217 113.91490 34 ft 1 kts 340°
2026-05-08 05:53 22.31212 113.91492 34 ft 0 kts 340°
2026-05-08 05:55 22.31213 113.91492 34 ft 1 kts 340°
2026-05-08 05:55 22.31241 113.91481 34 ft 7 kts 340°
2026-05-08 05:55 22.31303 113.91458 34 ft 9 kts 340°
2026-05-08 05:55 22.31370 113.91433 34 ft 10 kts 341°
2026-05-08 05:56 22.31436 113.91447 34 ft 10 kts 51°
2026-05-08 05:56 22.31465 113.91526 34 ft 11 kts 71°
2026-05-08 05:56 22.31519 113.91695 34 ft 38 kts 71°
2026-05-08 05:56 22.31589 113.91908 34 ft 27 kts 70°
2026-05-08 05:57 22.31650 113.92098 34 ft 25 kts 70°
2026-05-08 05:57 22.31708 113.92277 34 ft 24 kts 70°
2026-05-08 05:57 22.31762 113.92448 34 ft 23 kts 71°
2026-05-08 05:57 22.31815 113.92612 34 ft 22 kts 70°
2026-05-08 05:58 22.31865 113.92767 34 ft 21 kts 72°
2026-05-08 05:58 22.31911 113.92916 34 ft 20 kts 71°
2026-05-08 05:58 22.31956 113.93024 34 ft 12 kts 44°
2026-05-08 05:58 22.32031 113.93053 34 ft 10 kts 358°
2026-05-08 05:59 22.32032 113.93053 34 ft 10 kts 358°
2026-05-08 05:59 22.32078 113.93040 34 ft 9 kts 341°
2026-05-08 05:59 22.32116 113.92992 34 ft 8 kts 273°
2026-05-08 06:00 22.32103 113.92935 34 ft 8 kts 251°
2026-05-08 06:00 22.32060 113.92802 34 ft 44 kts 251°
2026-05-08 06:00 22.31885 113.92256 34 ft 107 kts 250°
2026-05-08 06:00 22.31577 113.91306 35 ft 159 kts 251°
2026-05-08 06:01 22.31172 113.90032 165 ft 189 kts 251°
2026-05-08 06:01 22.30755 113.88682 731 ft 193 kts 253°
2026-05-08 06:01 22.30354 113.87302 1313 ft 202 kts 251°
2026-05-08 06:01 22.29847 113.85796 1666 ft 221 kts 250°
2026-05-08 06:02 22.29320 113.84232 2213 ft 222 kts 251°
2026-05-08 06:02 22.28819 113.82669 2893 ft 217 kts 252°
2026-05-08 06:02 22.28356 113.81124 3277 ft 228 kts 254°
2026-05-08 06:02 22.27892 113.79412 3582 ft 242 kts 255°
2026-05-08 06:03 22.27415 113.77721 4416 ft 229 kts 254°
2026-05-08 06:03 22.26983 113.76118 5102 ft 225 kts 255°
2026-05-08 06:03 22.26427 113.74448 5056 ft 248 kts 242°
2026-05-08 06:03 22.25250 113.73025 5422 ft 260 kts 214°
2026-05-08 06:04 22.23702 113.72073 6117 ft 257 kts 207°
2026-05-08 06:04 22.22021 113.71406 6729 ft 259 kts 192°
2026-05-08 06:04 22.20203 113.71385 7321 ft 264 kts 167°
2026-05-08 06:04 22.18478 113.72067 7924 ft 266 kts 157°
2026-05-08 06:05 22.16789 113.72900 8497 ft 270 kts 157°
2026-05-08 06:05 22.15052 113.73743 9093 ft 273 kts 158°
2026-05-08 06:05 22.13291 113.74571 9696 ft 276 kts 157°
2026-05-08 06:05 22.11601 113.75572 10266 ft 282 kts 147°
2026-05-08 06:06 22.09999 113.76891 10624 ft 297 kts 141°
2026-05-08 06:06 22.08392 113.78393 10940 ft 312 kts 138°
2026-05-08 06:06 22.06994 113.80228 11246 ft 328 kts 121°
2026-05-08 06:06 22.06072 113.82533 11559 ft 343 kts 107°
2026-05-08 06:07 22.05482 113.85087 11827 ft 359 kts 102°
2026-05-08 06:07 22.04971 113.87779 12105 ft 374 kts 101°
2026-05-08 06:07 22.04467 113.90559 12387 ft 388 kts 101°
2026-05-08 06:07 22.03930 113.93460 12606 ft 402 kts 102°
2026-05-08 06:08 22.03356 113.96461 12947 ft 411 kts 102°
2026-05-08 06:08 22.02765 113.99478 13412 ft 416 kts 102°
2026-05-08 06:08 22.02157 114.02545 13944 ft 420 kts 102°
2026-05-08 06:08 22.01542 114.05627 14494 ft 423 kts 102°
2026-05-08 06:09 22.00898 114.08712 14988 ft 428 kts 104°
2026-05-08 06:09 22.00112 114.11794 15521 ft 431 kts 108°
2026-05-08 06:09 21.99071 114.14828 15984 ft 436 kts 113°
2026-05-08 06:09 21.97799 114.17818 16507 ft 439 kts 116°
2026-05-08 06:10 21.96417 114.20734 16951 ft 444 kts 118°
2026-05-08 06:10 21.94955 114.23675 17401 ft 448 kts 118°
2026-05-08 06:10 21.93461 114.26640 17904 ft 451 kts 118°
2026-05-08 06:10 21.91968 114.29611 18440 ft 452 kts 118°
2026-05-08 06:11 21.90496 114.32566 18949 ft 454 kts 118°
2026-05-08 06:11 21.88996 114.35605 19387 ft 457 kts 117°
2026-05-08 06:11 21.87505 114.38646 19831 ft 460 kts 117°
2026-05-08 06:11 21.86066 114.41685 20249 ft 463 kts 115°
2026-05-08 06:12 21.84792 114.44890 20725 ft 464 kts 110°
2026-05-08 06:12 21.83723 114.48174 21105 ft 468 kts 107°
2026-05-08 06:12 21.82781 114.51486 21543 ft 469 kts 105°
2026-05-08 06:12 21.81878 114.54920 22018 ft 470 kts 104°
2026-05-08 06:13 21.81018 114.58320 22388 ft 474 kts 104°
2026-05-08 06:13 21.80159 114.61761 22794 ft 476 kts 104°
2026-05-08 06:13 21.79305 114.65181 23148 ft 480 kts 104°
2026-05-08 06:13 21.78425 114.68681 23489 ft 484 kts 104°
2026-05-08 06:14 21.77538 114.72174 23887 ft 486 kts 104°
2026-05-08 06:14 21.76640 114.75684 24310 ft 488 kts 104°
2026-05-08 06:14 21.75752 114.79205 24700 ft 490 kts 103°
2026-05-08 06:14 21.75028 114.82745 25043 ft 492 kts 99°
2026-05-08 06:15 21.74539 114.86403 25373 ft 495 kts 95°
2026-05-08 06:15 21.74287 114.90073 25750 ft 497 kts 92°
2026-05-08 06:15 21.74181 114.93803 26057 ft 499 kts 90°
2026-05-08 06:15 21.74164 114.97545 26555 ft 498 kts 89°
2026-05-08 06:16 21.74187 115.01204 27088 ft 496 kts 88°
2026-05-08 06:16 21.74226 115.04936 27530 ft 496 kts 88°
2026-05-08 06:16 21.74263 115.08633 27972 ft 495 kts 88°
2026-05-08 06:16 21.74293 115.12296 28363 ft 496 kts 88°
2026-05-08 06:17 21.74326 115.19741 29183 ft 497 kts 88°
2026-05-08 06:17 21.74330 115.23404 29627 ft 496 kts 88°
2026-05-08 06:17 21.74329 115.27104 30073 ft 495 kts 88°
2026-05-08 06:18 21.74324 115.30804 30483 ft 495 kts 88°
2026-05-08 06:18 21.74317 115.34473 30872 ft 495 kts 88°
2026-05-08 06:18 21.74307 115.38168 31270 ft 494 kts 88°
2026-05-08 06:18 21.74297 115.41853 31622 ft 495 kts 88°
2026-05-08 06:19 21.74286 115.45544 31964 ft 496 kts 88°
2026-05-08 06:19 21.74274 115.49271 32334 ft 495 kts 88°
2026-05-08 06:19 21.74261 115.52955 32667 ft 496 kts 88°
2026-05-08 06:19 21.74247 115.56619 33092 ft 494 kts 87°
2026-05-08 06:20 21.74233 115.60336 33498 ft 493 kts 87°
2026-05-08 06:20 21.74217 115.64006 33994 ft 491 kts 87°
2026-05-08 06:20 21.74202 115.67689 34366 ft 490 kts 87°
2026-05-08 06:20 21.74188 115.71299 34727 ft 489 kts 87°
2026-05-08 06:21 21.74173 115.74972 34933 ft 491 kts 87°
2026-05-08 06:21 21.74158 115.78647 34925 ft 492 kts 87°
2026-05-08 06:21 21.74123 115.85995 34927 ft 489 kts 87°
2026-05-08 06:22 21.74085 115.93274 34928 ft 489 kts 87°
2026-05-08 06:22 21.74046 116.00592 34923 ft 489 kts 87°
2026-05-08 06:23 21.74001 116.07872 34923 ft 489 kts 87°
2026-05-08 06:23 21.73954 116.15185 34924 ft 489 kts 87°
2026-05-08 06:24 21.73903 116.22446 34922 ft 489 kts 87°
2026-05-08 06:24 21.73848 116.29765 34921 ft 488 kts 87°
2026-05-08 06:25 21.73790 116.37025 34924 ft 489 kts 87°
2026-05-08 06:25 21.73729 116.44312 34923 ft 488 kts 86°
2026-05-08 06:26 21.73665 116.51619 34926 ft 489 kts 86°
2026-05-08 06:26 21.73597 116.58892 34924 ft 487 kts 86°
2026-05-08 06:27 21.73527 116.66214 34920 ft 486 kts 87°
2026-05-08 06:27 21.73482 116.73497 34920 ft 485 kts 85°
2026-05-08 06:28 21.74273 116.80622 34922 ft 478 kts 71°
2026-05-08 06:28 21.76332 116.87342 34921 ft 473 kts 64°
2026-05-08 06:29 21.78777 116.93900 34924 ft 471 kts 63°
2026-05-08 06:29 21.81278 117.00473 34918 ft 473 kts 63°
2026-05-08 06:30 21.83711 117.07011 34920 ft 473 kts 64°
2026-05-08 06:30 21.86117 117.13596 34923 ft 474 kts 64°
2026-05-08 06:31 21.88514 117.20222 34923 ft 473 kts 64°
2026-05-08 06:31 21.90893 117.26833 34921 ft 473 kts 64°
2026-05-08 06:32 21.93264 117.33437 34922 ft 473 kts 64°
2026-05-08 06:32 21.95631 117.40042 34922 ft 474 kts 64°
2026-05-08 06:33 21.98014 117.46665 34926 ft 474 kts 64°
2026-05-08 06:33 22.00832 117.53069 34928 ft 469 kts 56°
2026-05-08 06:34 22.04151 117.59090 34924 ft 467 kts 53°
2026-05-08 06:34 22.07609 117.65037 34926 ft 469 kts 53°
2026-05-08 06:35 22.11058 117.70985 34925 ft 468 kts 53°
2026-05-08 06:35 22.14510 117.77003 34927 ft 471 kts 54°
2026-05-08 06:36 22.17997 117.83131 34928 ft 472 kts 54°
2026-05-08 06:36 22.21416 117.89174 34929 ft 471 kts 54°
2026-05-08 06:37 22.24822 117.95208 34929 ft 470 kts 54°
2026-05-08 06:37 22.28228 118.01244 34929 ft 472 kts 54°
2026-05-08 06:38 22.31710 118.07275 34931 ft 472 kts 53°
2026-05-08 06:38 22.35219 118.13264 34931 ft 473 kts 53°
2026-05-08 06:39 22.38720 118.19241 34934 ft 472 kts 53°
2026-05-08 06:39 22.42217 118.25265 34936 ft 473 kts 53°
2026-05-08 06:40 22.45666 118.31337 34935 ft 473 kts 53°
2026-05-08 06:40 22.49080 118.37389 34934 ft 474 kts 54°
2026-05-08 06:41 22.52531 118.43511 34933 ft 475 kts 53°
2026-05-08 06:41 22.55967 118.49608 34936 ft 476 kts 53°
2026-05-08 06:42 22.59397 118.55676 34938 ft 474 kts 53°
2026-05-08 06:42 22.62865 118.61763 34937 ft 474 kts 53°
2026-05-08 06:43 22.66343 118.67861 34941 ft 475 kts 53°
2026-05-08 06:43 22.69818 118.73967 34944 ft 476 kts 53°
2026-05-08 06:44 22.73277 118.80053 34947 ft 477 kts 54°
2026-05-08 06:44 22.76722 118.86127 34947 ft 476 kts 54°
2026-05-08 06:45 22.80151 118.92184 34945 ft 475 kts 54°
2026-05-08 06:45 22.83616 118.98305 34945 ft 478 kts 54°
2026-05-08 06:46 22.87076 119.04431 34944 ft 476 kts 54°
2026-05-08 06:46 22.90541 119.10570 34942 ft 478 kts 54°
2026-05-08 06:47 22.94003 119.16709 34938 ft 479 kts 54°
2026-05-08 06:47 22.97478 119.22883 34938 ft 478 kts 54°
2026-05-08 06:48 23.00951 119.29060 34936 ft 480 kts 54°
2026-05-08 06:48 23.04388 119.35181 34937 ft 478 kts 54°
2026-05-08 06:49 23.07874 119.41395 34941 ft 479 kts 53°
2026-05-08 06:49 23.11336 119.47572 34938 ft 479 kts 54°
2026-05-08 06:50 23.14782 119.53728 34938 ft 479 kts 53°
2026-05-08 06:50 23.18261 119.59952 34938 ft 480 kts 53°
2026-05-08 06:51 23.21628 119.65982 34934 ft 478 kts 54°
2026-05-08 06:51 23.25082 119.72170 34935 ft 481 kts 54°
2026-05-08 06:52 23.28542 119.78375 34932 ft 480 kts 54°
2026-05-08 06:52 23.32001 119.84590 34936 ft 480 kts 54°
2026-05-08 06:53 23.35547 119.90762 34932 ft 478 kts 51°
2026-05-08 06:53 23.39721 119.96238 34937 ft 471 kts 40°
2026-05-08 06:54 23.44472 120.01202 34934 ft 471 kts 37°
2026-05-08 06:54 23.49311 120.06013 34940 ft 470 kts 37°
2026-05-08 06:55 23.54115 120.10825 34943 ft 471 kts 37°
2026-05-08 06:55 23.58907 120.15701 34944 ft 470 kts 38°
2026-05-08 06:56 23.63663 120.20589 34945 ft 472 kts 38°
2026-05-08 06:56 23.68434 120.25514 34949 ft 472 kts 38°
2026-05-08 06:57 23.73196 120.30444 34951 ft 471 kts 38°
2026-05-08 06:57 23.77958 120.35379 34953 ft 473 kts 38°
2026-05-08 06:58 23.82717 120.40318 34957 ft 473 kts 38°
2026-05-08 06:58 23.87501 120.45287 34959 ft 474 kts 38°
2026-05-08 06:59 23.92269 120.50249 34959 ft 473 kts 38°
2026-05-08 06:59 23.97001 120.55224 34970 ft 474 kts 38°
2026-05-08 07:00 24.01729 120.60221 34975 ft 475 kts 38°
2026-05-08 07:00 24.06479 120.65247 34980 ft 475 kts 39°
2026-05-08 07:01 24.11255 120.70302 34985 ft 475 kts 39°
2026-05-08 07:01 24.15996 120.75323 35001 ft 477 kts 38°
2026-05-08 07:02 24.20775 120.80390 35031 ft 475 kts 38°
2026-05-08 07:02 24.25228 120.85113 35067 ft 476 kts 38°
2026-05-08 07:03 24.29264 120.89399 35093 ft 476 kts 38°
2026-05-08 07:03 24.33103 120.93478 35122 ft 475 kts 38°
2026-05-08 07:04 24.37038 120.97664 35147 ft 476 kts 38°
2026-05-08 07:04 24.38447 120.99163 35158 ft 477 kts 38°